Wind_Speed
41 41 39 37 34 30 30 34 38 31 26 28 29 27 25 22 22 22 23 24 23 21 25 23 17 22 19 21 26 18 26 30 33 32 36 34 30 18 21 20 29 26 21 16 18 17 15
40 42 41 38 36 33 30 30 36 35 29 25 35 27 21 19 20 21 21 22 23 25 22 33 31 29 29 30 26 26 30 30 35 35 33 32 20 11 14 19 23 23 20 14 14 15 15
38 41 42 40 38 36 33 29 30 35 32 26 31 32 26 18 17 17 19 26 30 27 27 31 32 33 29 31 27 24 26 28 36 34 37 28 29 27 27 23 18 17 17 14 13 14 15
36 39 41 41 39 37 36 32 28 33 33 30 25 33 24 22 23 24 22 28 28 29 31 33 30 31 31 26 29 28 24 30 37 38 35 34 31 25 21 16 17 15 12 12 12 13 13
34 38 41 41 41 38 35 34 28 28 35 32 24 26 28 21 23 24 26 27 27 30 33 30 32 31 30 24 22 28 28 26 31 28 27 25 23 17 19 18 16 14 9 9 9 13 13
30 35 38 40 40 39 37 33 31 26 27 32 25 26 24 23 20 25 27 27 27 25 24 23 25 24 26 25 23 25 23 29 26 25 25 21 19 20 17 16 6 12 7 9 6 11 14
27 32 36 38 39 39 38 35 31 28 24 25 26 26 30 23 24 24 28 24 18 22 17 24 23 31 24 25 23 24 23 22 22 22 22 22 26 21 19 13 11 10 7 8 12 10 10
26 29 33 36 37 38 37 36 32 28 25 20 20 24 26 31 23 24 24 31 32 30 30 24 22 23 25 25 23 23 25 20 17 18 16 21 22 16 15 11 12 13 8 9 7 7 10
23 27 31 34 36 36 37 37 35 28 24 20 14 15 18 24 32 31 30 29 29 28 28 24 20 19 18 22 21 21 18 24 17 16 12 13 17 14 14 11 8 11 10 7 7 6 10
21 24 29 33 35 35 35 35 37 30 23 21 16 10 8 9 15 20 18 15 12 10 11 13 12 12 17 15 19 18 17 19 19 16 14 12 14 14 11 10 9 4 6 6 4 4 4
20 23 26 32 35 34 33 33 34 34 24 18 18 13 8 5 4 7 7 7 6 4 4 6 10 12 9 8 15 14 12 13 16 13 8 10 14 12 9 8 8 3 3 4 5 6 11
18 21 26 31 34 33 32 31 32 35 26 17 18 17 10 8 5 4 4 5 6 4 5 5 7 8 10 10 9 10 9 8 9 7 7 10 9 6 6 5 4 2 2 4 6 4 2
16 19 24 29 32 31 32 29 30 34 27 18 16 18 16 10 6 4 3 4 4 8 5 6 8 10 8 10 10 8 8 6 4 5 5 5 4 3 3 3 2 1 2 1 2 1 3
14 17 21 26 30 31 31 27 28 32 28 19 15 18 18 16 10 5 6 5 8 5 7 10 11 8 8 9 8 9 9 5 5 6 5 3 2 4 5 4 1 0 1 2 2 1 3
13 16 19 23 27 30 28 26 25 29 30 22 16 17 17 17 13 9 7 10 6 9 12 12 10 7 5 3 5 5 4 3 3 4 5 3 2 2 6 4 4 0 2 2 2 4 3
13 14 18 19 23 27 26 23 23 26 28 26 17 15 16 18 14 11 6 9 8 12 14 8 3 7 3 5 5 4 2 2 4 3 5 3 2 3 3 5 7 8 3 3 1 2 4
13 14 15 18 20 23 24 21 21 24 27 26 23 15 15 15 15 9 11 12 11 10 4 1 5 4 5 6 9 6 5 2 5 6 6 6 4 2 3 3 3 8 9 7 6 6 3
14 14 15 17 19 21 22 20 17 20 22 24 21 18 16 11 9 10 10 9 7 3 2 2 3 5 6 4 4 3 3 3 6 5 6 5 3 4 5 8 9 10 8 7 4 4 8
15 16 16 17 18 18 19 19 17 16 17 21 20 19 14 14 9 7 6 6 3 3 2 2 2 2 2 4 1 4 5 4 5 6 4 4 3 2 4 4 4 12 13 15 16 16 16
16 17 17 18 17 17 17 16 16 16 16 16 17 18 16 15 11 7 4 2 0 0 0 1 2 3 4 2 2 2 4 3 5 5 5 5 8 9 6 3 8 13 14 14 16 14 20
19 19 18 18 17 16 17 15 13 15 16 15 14 12 15 15 12 8 6 5 5 5 5 4 3 4 4 2 3 5 7 7 8 8 9 8 12 13 15 16 19 23 26 25 29 33 27
22 21 20 19 20 18 16 16 14 12 13 13 11 13 13 14 13 12 7 7 8 6 7 7 7 7 7 7 9 4 8 6 8 9 11 12 11 14 24 20 16 21 24 27 30 34 42
26 25 23 21 21 20 18 16 17 13 13 15 11 10 12 11 14 13 11 10 8 10 9 9 10 11 12 13 13 14 15 14 15 16 14 14 11 9 8 9 18 24 7 4 10 18 15
30 30 28 26 25 23 22 19 17 17 14 13 13 12 11 12 13 13 15 14 13 10 13 13 13 15 13 13 14 15 16 18 20 20 21 14 13 9 12 11 4 4 10 15 6 7 9
32 32 31 30 28 27 26 23 20 20 20 19 14 13 14 16 15 16 13 16 16 15 15 16 17 17 16 17 16 11 11 15 16 21 24 25 20 9 6 6 19 17 5 4 12 11 7
34 34 32 32 30 28 27 26 24 21 21 20 21 17 17 19 20 17 18 17 18 21 18 17 17 17 17 16 14 8 8 6 6 5 8 17 20 19 6 5 5 6 8 16 12 4 4
37 36 35 32 33 30 29 28 26 25 25 25 23 24 23 22 23 20 22 21 18 20 19 22 21 20 17 16 16 11 11 11 7 7 8 14 16 29 24 10 13 18 15 8 4 4 8
37 37 36 34 35 34 32 30 30 28 26 27 24 23 25 26 23 24 24 24 25 23 22 22 19 17 15 16 11 12 12 11 13 15 9 10 9 12 17 11 13 7 4 5 6 16 28
40 40 38 36 35 35 36 35 35 34 32 31 29 28 27 26 24 25 23 22 25 27 28 29 25 17 9 9 11 10 13 12 12 8 12 14 17 10 14 9 10 9 15 25 30 35 38
Wind_Direction
25 25 24 26 27 21 24 27 25 23 21 27 32 43 40 54 72 75 68 75 80 81 74 52 73 97 127 124 121 142 146 147 144 160 163 163 144 156 154 188 182 190 185 189 196 199 207
23 24 24 24 27 25 17 23 26 30 27 37 43 51 41 57 61 64 77 85 95 96 87 86 84 94 98 107 114 128 139 145 141 154 155 142 136 149 163 155 186 194 194 197 196 200 207
20 22 25 25 24 26 24 26 26 32 30 31 44 51 61 58 70 79 84 87 98 104 95 98 90 93 106 104 113 124 133 145 133 132 140 151 158 168 183 173 175 183 189 192 201 207 211
19 19 24 25 26 25 28 26 30 32 33 29 36 49 58 64 80 82 79 102 98 84 88 95 93 100 100 106 118 127 136 149 141 143 160 168 174 167 171 166 155 165 173 185 199 209 217
18 18 21 25 26 26 28 28 31 33 37 34 30 47 50 79 92 86 91 92 85 93 97 96 99 99 96 100 119 129 136 144 142 147 160 165 168 163 153 157 155 157 176 183 209 216 224
16 17 19 23 24 25 27 31 30 33 36 37 39 46 64 93 100 92 91 91 97 109 96 97 96 102 106 101 113 116 137 141 145 143 145 148 149 146 147 148 155 179 167 197 228 224 230
15 16 17 18 23 23 25 29 31 33 32 44 43 53 72 75 87 88 96 90 84 77 82 84 101 111 106 108 112 114 125 124 129 138 137 136 140 139 167 174 145 162 172 185 218 241 249
14 15 15 16 16 21 21 23 29 32 36 40 51 48 59 85 89 81 92 93 90 87 80 84 96 102 113 112 112 113 120 109 123 134 136 140 141 146 160 158 153 145 148 189 238 242 256
13 17 14 12 11 14 20 19 20 27 35 38 41 53 57 78 95 96 89 87 86 87 86 82 83 92 101 110 110 110 119 110 100 112 131 142 141 141 144 146 148 155 164 208 236 274 279
16 18 15 10 8 7 13 17 15 18 27 40 37 44 58 55 90 100 91 80 79 87 89 79 79 79 99 98 105 110 115 120 126 127 121 119 138 142 150 154 152 194 208 243 262 300 250
16 15 16 13 7 8 7 13 15 14 18 31 44 33 23 7 349 350 11 44 76 100 78 71 89 109 65 106 120 113 116 121 124 127 124 140 152 151 165 170 184 187 229 263 283 292 299
14 13 13 13 11 10 9 9 13 13 13 23 36 41 32 19 360 2 29 37 25 60 65 84 88 84 104 99 102 104 108 123 123 112 89 139 157 165 176 175 192 207 293 311 296 275 286
8 10 10 11 11 9 9 10 11 11 14 22 29 37 34 32 24 29 38 36 75 64 112 107 111 103 104 107 115 108 112 116 74 86 68 101 154 184 190 177 200 227 54 178 337 359 226
356 2 7 10 9 9 10 15 15 12 16 20 25 31 37 37 47 55 60 44 61 77 102 124 117 97 108 112 111 121 105 108 120 111 105 90 172 216 219 218 236 149 173 126 203 332 291
342 350 0 5 8 9 13 17 18 17 17 21 18 22 32 42 43 59 64 62 101 116 119 115 105 69 88 85 124 113 128 122 153 171 144 154 260 285 240 241 232 91 185 229 276 300 315
329 338 347 357 2 8 12 17 21 19 17 16 14 16 24 33 41 50 84 95 113 125 132 121 71 122 71 121 93 93 176 204 183 182 199 186 265 279 258 243 232 226 194 123 189 34 285
319 326 335 344 352 2 7 15 20 19 21 16 15 26 28 26 35 54 82 108 123 127 134 118 137 128 150 168 141 172 210 223 201 198 200 197 215 243 258 239 246 224 217 209 206 219 203
310 315 323 332 340 347 359 4 11 16 20 19 13 24 24 20 30 47 79 109 121 117 111 121 131 144 151 162 178 185 212 211 203 206 208 208 207 254 262 274 252 231 213 219 212 199 231
302 307 308 314 322 332 342 352 356 3 12 20 13 16 18 19 20 35 63 96 104 102 108 136 139 173 195 175 154 214 218 221 197 203 203 195 203 166 273 281 258 244 247 238 225 265 242
290 296 301 306 311 317 326 336 343 347 349 1 11 11 11 13 12 8 7 351 257 208 188 151 159 168 171 195 240 246 270 260 242 241 238 247 233 222 224 215 277 274 278 274 237 238 248
282 288 296 301 304 308 313 319 325 338 342 349 10 3 6 359 2 357 336 323 297 285 276 269 254 234 211 238 280 271 259 264 268 259 258 264 269 269 267 269 274 274 271 262 252 262 247
275 279 283 288 294 300 306 311 311 313 330 339 349 349 353 351 348 344 338 312 302 291 279 271 262 268 257 227 215 198 250 279 291 266 259 262 273 285 289 297 278 276 275 267 264 260 257
272 272 275 280 285 291 297 299 300 299 307 314 328 326 328 338 342 331 331 317 300 294 284 273 266 266 261 258 263 267 273 274 266 275 273 272 278 301 282 285 292 291 293 262 302 289 275
276 278 279 280 282 285 290 293 293 293 294 299 303 311 315 313 319 325 323 310 297 279 280 283 273 269 277 271 271 270 273 274 270 263 257 248 271 269 283 313 256 254 292 293 316 332 297
273 275 279 279 280 283 287 289 293 294 294 293 293 294 294 295 303 302 300 305 298 285 285 276 268 269 267 269 272 271 278 279 264 260 253 241 234 253 259 253 285 291 243 330 325 333 298
271 271 272 277 281 282 282 283 287 291 291 291 294 292 290 290 293 292 287 285 286 291 285 280 280 277 272 270 268 244 218 233 249 244 236 230 227 211 218 245 259 277 283 316 327 131 145
271 271 272 273 274 277 278 281 285 291 288 286 288 291 290 287 287 283 280 277 273 274 271 283 288 282 273 265 254 254 250 240 248 235 213 217 221 217 224 241 264 267 288 294 249 196 241
270 269 268 268 272 274 276 277 281 283 289 293 290 287 286 285 283 279 276 272 275 265 261 271 278 273 260 250 254 256 245 234 246 247 248 244 226 217 214 222 258 262 205 243 257 276 283
270 270 270 271 272 274 276 275 278 281 284 290 289 282 281 279 279 277 269 272 266 260 263 264 254 242 233 241 232 237 253 253 239 234 248 251 244 247 232 252 236 254 287 292 297 299 294
Height
3124 3117 3110 3105 3099 3091 3086 3078 3069 3063 3058 3054 3048 3041 3041 3035 3030 3028 3027 3025 3024 3024 3025 3021 3020 3023 3024 3032 3035 3041 3046 3053 3059 3069 3076 3085 3093 3101 3104 3108 3113 3116 3120 3125 3128 3131 3133
3126 3120 3114 3108 3101 3095 3089 3081 3074 3067 3062 3057 3053 3044 3043 3042 3038 3035 3033 3031 3030 3031 3033 3031 3030 3033 3034 3038 3043 3047 3052 3059 3063 3071 3081 3090 3098 3104 3107 3109 3113 3116 3120 3125 3128 3130 3133
3130 3123 3117 3110 3104 3098 3092 3085 3078 3072 3066 3061 3058 3050 3044 3044 3042 3039 3037 3036 3038 3037 3036 3036 3037 3038 3046 3046 3050 3055 3060 3066 3066 3076 3084 3089 3095 3101 3102 3109 3114 3118 3122 3125 3128 3130 3132
3133 3127 3120 3114 3107 3102 3095 3089 3082 3077 3071 3065 3061 3058 3049 3048 3048 3046 3044 3042 3042 3040 3041 3043 3044 3046 3048 3053 3056 3059 3065 3069 3069 3078 3084 3089 3096 3100 3106 3111 3115 3119 3123 3124 3127 3129 3132
3137 3131 3124 3118 3111 3104 3099 3094 3087 3081 3076 3070 3064 3062 3057 3054 3053 3050 3050 3050 3049 3048 3047 3050 3051 3053 3055 3060 3063 3063 3067 3074 3078 3082 3087 3093 3099 3105 3109 3114 3117 3120 3122 3124 3127 3128 3131
3139 3133 3127 3121 3115 3108 3103 3097 3092 3086 3081 3076 3070 3065 3063 3062 3060 3059 3055 3056 3056 3055 3055 3053 3055 3062 3064 3066 3068 3070 3074 3076 3081 3086 3091 3097 3102 3107 3112 3116 3118 3120 3122 3124 3127 3129 3129
3142 3136 3130 3123 3118 3112 3106 3102 3097 3090 3086 3082 3077 3072 3070 3065 3063 3063 3061 3062 3066 3064 3061 3061 3065 3065 3071 3072 3075 3076 3081 3084 3087 3091 3094 3099 3102 3107 3111 3115 3118 3121 3123 3126 3126 3127 3128
3144 3138 3132 3126 3120 3116 3110 3105 3100 3096 3090 3086 3082 3079 3075 3074 3071 3071 3072 3068 3069 3072 3072 3074 3075 3076 3076 3077 3081 3084 3085 3091 3092 3093 3098 3102 3105 3110 3114 3116 3118 3120 3124 3125 3125 3126 3126
3146 3141 3135 3129 3123 3119 3113 3108 3103 3099 3094 3090 3087 3083 3082 3079 3077 3077 3076 3076 3076 3077 3078 3081 3082 3083 3084 3085 3087 3089 3092 3092 3096 3098 3101 3103 3108 3111 3113 3116 3119 3121 3122 3122 3124 3124 3124
3148 3144 3138 3131 3126 3121 3116 3111 3106 3101 3097 3093 3090 3087 3084 3084 3083 3081 3081 3081 3081 3081 3083 3088 3088 3090 3090 3090 3090 3092 3094 3096 3096 3100 3103 3107 3109 3111 3114 3117 3120 3121 3122 3122 3123 3123 3124
3149 3145 3140 3134 3128 3123 3117 3114 3109 3103 3098 3096 3093 3090 3086 3084 3083 3081 3082 3081 3082 3082 3085 3094 3092 3093 3092 3093 3094 3095 3096 3098 3099 3101 3105 3108 3110 3111 3114 3118 3119 3120 3120 3122 3122 3122 3122
3150 3146 3142 3137 3131 3125 3119 3115 3111 3106 3101 3097 3094 3092 3089 3086 3084 3084 3082 3081 3080 3083 3090 3094 3093 3094 3095 3095 3096 3097 3099 3102 3103 3105 3106 3107 3110 3113 3116 3117 3119 3120 3121 3121 3121 3121 3121
3150 3147 3144 3139 3133 3127 3121 3116 3112 3108 3103 3099 3096 3094 3091 3088 3086 3084 3083 3084 3084 3084 3094 3096 3095 3095 3096 3097 3098 3100 3102 3104 3104 3106 3108 3111 3113 3115 3116 3118 3119 3119 3121 3121 3124 3121 3121
3149 3148 3145 3140 3136 3129 3123 3118 3114 3111 3105 3101 3099 3095 3093 3090 3088 3086 3085 3086 3085 3091 3092 3094 3095 3097 3098 3098 3100 3101 3103 3105 3107 3109 3111 3113 3116 3115 3116 3117 3118 3119 3120 3121 3123 3123 3119
3150 3148 3145 3141 3138 3132 3125 3120 3116 3113 3109 3104 3102 3099 3096 3092 3091 3089 3089 3087 3091 3094 3096 3097 3098 3100 3100 3101 3102 3103 3104 3106 3107 3109 3112 3113 3113 3113 3114 3115 3118 3118 3119 3121 3121 3120 3119
3148 3147 3145 3142 3138 3134 3129 3123 3119 3115 3111 3108 3104 3101 3098 3096 3093 3093 3093 3091 3094 3096 3098 3099 3100 3100 3101 3102 3103 3105 3106 3106 3107 3109 3109 3111 3112 3112 3113 3114 3116 3117 3120 3120 3120 3123 3121
3147 3146 3145 3142 3139 3135 3131 3127 3122 3118 3113 3110 3107 3102 3100 3099 3098 3097 3096 3097 3098 3099 3101 3101 3101 3102 3102 3102 3103 3104 3105 3107 3107 3108 3109 3110 3111 3113 3112 3112 3113 3114 3114 3116 3118 3119 3118
3145 3144 3143 3141 3139 3137 3134 3129 3126 3121 3115 3112 3110 3106 3104 3101 3102 3099 3099 3100 3101 3102 3102 3102 3102 3102 3103 3103 3104 3104 3105 3105 3106 3107 3108 3109 3110 3110 3110 3110 3111 3110 3112 3114 3115 3115 3113
3142 3141 3140 3138 3136 3135 3134 3131 3127 3123 3118 3114 3113 3110 3106 3104 3103 3101 3101 3102 3103 3103 3103 3103 3103 3103 3104 3104 3106 3104 3104 3105 3105 3106 3106 3108 3108 3109 3108 3109 3107 3108 3109 3110 3112 3111 3107
3139 3138 3136 3135 3134 3132 3131 3130 3128 3124 3120 3117 3113 3112 3109 3107 3105 3104 3102 3102 3102 3103 3103 3103 3104 3104 3104 3105 3105 3105 3105 3105 3105 3106 3106 3106 3105 3105 3105 3105 3105 3105 3105 3106 3107 3105 3100
3133 3133 3132 3131 3130 3129 3128 3126 3125 3123 3120 3118 3114 3113 3111 3109 3107 3105 3104 3102 3102 3102 3103 3103 3104 3104 3104 3104 3104 3103 3103 3104 3104 3104 3104 3105 3103 3102 3102 3102 3101 3099 3098 3099 3097 3095 3094
3128 3127 3127 3126 3125 3124 3124 3122 3122 3121 3120 3118 3115 3113 3110 3108 3106 3105 3104 3104 3102 3100 3100 3101 3101 3102 3103 3103 3103 3102 3101 3102 3102 3101 3101 3101 3099 3097 3095 3096 3094 3091 3089 3088 3088 3087 3084
3123 3122 3121 3121 3120 3119 3119 3118 3117 3116 3115 3115 3114 3112 3109 3108 3105 3103 3103 3102 3102 3102 3100 3098 3098 3098 3099 3100 3100 3100 3100 3100 3099 3098 3098 3098 3097 3096 3091 3092 3089 3083 3077 3078 3079 3078 3079
3117 3118 3118 3117 3116 3115 3114 3114 3114 3113 3111 3110 3110 3110 3107 3105 3103 3102 3100 3099 3099 3098 3098 3099 3098 3096 3097 3095 3095 3095 3095 3095 3094 3093 3094 3094 3094 3095 3090 3089 3088 3077 3076 3077 3076 3073 3073
3111 3111 3112 3111 3111 3112 3110 3109 3108 3109 3109 3107 3105 3105 3103 3101 3100 3099 3097 3096 3095 3094 3094 3094 3094 3094 3093 3091 3090 3088 3088 3087 3085 3084 3085 3087 3090 3092 3090 3087 3078 3073 3072 3073 3072 3072 3068
3103 3104 3105 3105 3105 3105 3104 3104 3104 3102 3103 3103 3103 3101 3099 3098 3097 3096 3093 3092 3091 3090 3089 3089 3090 3090 3090 3090 3088 3084 3081 3080 3079 3078 3079 3080 3083 3087 3087 3087 3079 3070 3071 3070 3068 3069 3068
3095 3096 3097 3098 3098 3097 3097 3099 3098 3098 3097 3096 3096 3094 3093 3092 3092 3092 3090 3087 3086 3084 3084 3084 3085 3086 3086 3086 3084 3083 3079 3079 3077 3073 3073 3076 3077 3076 3079 3080 3071 3067 3067 3068 3069 3071 3065
3085 3086 3087 3088 3089 3089 3089 3091 3091 3091 3090 3089 3089 3087 3086 3084 3085 3084 3083 3084 3082 3080 3079 3078 3079 3079 3081 3082 3083 3080 3075 3073 3073 3071 3070 3073 3072 3071 3074 3075 3068 3062 3064 3066 3065 3062 3059
3074 3077 3078 3079 3080 3080 3081 3082 3082 3082 3082 3080 3081 3080 3077 3076 3078 3077 3075 3075 3076 3075 3075 3071 3072 3072 3074 3076 3078 3076 3075 3072 3066 3066 3067 3069 3068 3067 3068 3063 3061 3061 3060 3058 3056 3053 3049